Location: Waco, TX
(31.5480°N, 97.1670°W)
Time: 23:47:12
(UTC-06:00)

ISS - Pass Details

Date: 17 November 2018
Orbit: 401 x 409 km, 51.6° (Epoch: 21 November)

Event Time Altitude Azimuth Distance (km) Brightness Sun altitude
Rises 03:51:06 0° 331° (NNW) 2,316 - -39.8°
Reaches altitude 10° 03:53:47 10° 355° (N) 1,456 - -39.2°
Maximum altitude 03:55:51 16° 35° (NE) 1,166 - -38.8°
Drops below altitude 10° 03:57:55 10° 74° (ENE) 1,455 - -38.3°
Exits shadow 04:00:01 - 94° (E) 2,106 0.7 -37.9°
Sets 04:00:36 0° 98° (E) 2,314 0.9 -37.8°
